Flag for Mongolia Weather past 2 weeks in Ulaanbaatar, Mongolia

Now
-17 °F

Passing clouds.


Feels Like: -17 °F
Forecast: -14 / 22 °F
Wind: 1 mph from North

Location: Ulan-Bator

Current Time: Mar 3, 2015 at 8:14:30 AM

Latest Report: Mar 3, 2015 at 8:00 AM


Visibility: 5 mi

Pressure: 30.18 "Hg

Humidity: 69%

Dew point: -24 °F

Location of UlaanbaatarLocation

Historic Weather in Ulaanbaatar — Graph

°F

Ulaanbaatar temperature yesterday

Maximum temperature yesterday: 10 °F (at 12:30 AM)
Minimum temperature yesterday: -13 °F (at 10:30 PM)
Average temperature yesterday: 4 °F

Past Weeks' High & Low Weather Summary

 TemperatureHumidityPressure
High36 °F (Feb 19, 2:00 PM)85% (Feb 28, 4:00 AM)30.30 "Hg (Feb 28, 4:00 AM)
Low-24 °F (Feb 23, 7:30 AM)21% (Feb 26, 4:30 PM)29.65 "Hg (Feb 20, 7:30 AM)
Average4 °F58%30.00 "Hg
* Reported Feb 16 7:00 AM — Mar 3 7:00 AM, Ulaanbaatar, Weather by CustomWeather, © 2015

Note: Actual official high and low records may vary slightly from our data, if they occured in-between our weather recording intervals... More about our weather records

Advertising

Ulaanbaatar weather history for previous 24 hours

 ConditionsComfort  
Time TempWeatherWind HumidityBarometerVisibility
7:00 AM
Tue, Mar 3
-17 °FClear.1 mph69%30.21 "Hg10 mi
6:30 AM-20 °FClear.1 mph68%30.21 "Hg10 mi
6:00 AM-18 °FClear.1 mph62%30.21 "Hg10 mi
5:30 AM-17 °FClear.1 mph69%30.21 "Hg10 mi
5:00 AM-18 °FClear.1 mph69%30.24 "Hg10 mi
4:30 AM-17 °FClear.1 mph69%30.24 "Hg10 mi
4:00 AM-18 °FClear.1 mph62%30.24 "Hg10 mi
3:30 AM-18 °FClear.1 mph69%30.27 "Hg10 mi
3:00 AM-17 °FClear.1 mph69%30.27 "Hg10 mi
2:30 AM-11 °FClear.1 mph63%30.27 "Hg10 mi
2:00 AM-11 °FClear.No wind63%30.27 "Hg10 mi
1:30 AM-13 °FClear.3 mph69%30.27 "Hg10 mi
1:00 AM-13 °FClear.3 mph63%30.27 "Hg10 mi
12:30 AM-13 °FClear.1 mph63%30.27 "Hg10 mi
12:00 AM-11 °FClear.1 mph70%30.30 "Hg10 mi
11:30 PM
Mon, Mar 2
-9 °FClear.8 mph64%30.27 "Hg10 mi
11:00 PM-11 °FClear.6 mph70%30.30 "Hg10 mi
10:30 PM-13 °FClear.6 mph69%30.30 "Hg10 mi
10:00 PM-11 °FClear.3 mph63%30.30 "Hg10 mi
9:30 PM-11 °FClear.6 mph63%30.30 "Hg10 mi
9:00 PM-9 °FClear.8 mph58%30.30 "Hg10 mi
8:30 PM-2 °FClear.No wind54%30.27 "Hg10 mi
8:00 PM0 °FPassing clouds.6 mph54%30.27 "HgN/A
7:30 PM3 °FSunny.6 mph46%30.27 "Hg10 mi
7:00 PM3 °FSunny.13 mph46%30.27 "Hg10 mi
6:30 PM5 °FPassing clouds.13 mph42%30.24 "HgN/A
6:00 PM7 °FPassing clouds.15 mph39%30.24 "HgN/A
5:30 PM7 °FPassing clouds.17 mph43%30.24 "HgN/A
5:00 PM7 °FPassing clouds.22 mph43%30.24 "HgN/A
4:30 PM9 °FPassing clouds.22 mph36%30.21 "HgN/A
4:00 PM9 °FPassing clouds.24 mph39%30.21 "HgN/A
3:30 PM9 °FPassing clouds.24 mph39%30.21 "HgN/A
3:00 PM9 °FPassing clouds.22 mph39%30.18 "HgN/A
2:30 PM9 °FPassing clouds.26 mph36%30.18 "HgN/A
2:00 PM9 °FPassing clouds.22 mph39%30.18 "HgN/A
1:30 PM9 °FPassing clouds.26 mph39%30.18 "HgN/A
1:00 PM9 °FPassing clouds.26 mph36%30.18 "HgN/A
12:30 PM9 °FPassing clouds.22 mph39%30.18 "HgN/A
12:00 PM9 °FPassing clouds.24 mph39%30.15 "HgN/A
11:30 AM9 °FPassing clouds.22 mph47%30.15 "HgN/A
11:00 AM9 °FPassing clouds.20 mph39%30.15 "HgN/A
10:30 AM9 °FPassing clouds.20 mph43%30.15 "HgN/A
10:00 AM9 °FPassing clouds.22 mph47%30.15 "HgN/A
9:30 AM7 °FPassing clouds.13 mph51%30.12 "HgN/A
9:00 AM7 °FPassing clouds.15 mph51%30.12 "HgN/A
8:30 AM5 °FPassing clouds.15 mph55%30.12 "HgN/A
8:00 AM1 °FPassing clouds.1 mph71%30.09 "HgN/A
Weather by CustomWeather, © 2015

See weather overviewHow to use our weather pages